Wind_Speed
9 11 11 5 9 10 22 17 14 14 17 18 8 8 8 10 6 6 14 14 12 15 17 17 16 15 15 16 16 15 14 12 14 16 14 14 14 13 13 14 15 15 14 13 12 12 11 11 12
12 11 10 10 6 9 16 13 16 13 11 10 15 7 9 10 6 12 11 11 14 14 16 17 16 15 13 14 16 16 17 15 14 15 14 14 13 12 13 14 14 14 14 13 12 12 12 12 13
13 16 15 7 4 19 14 12 16 16 15 6 14 10 9 11 4 7 10 13 13 15 16 15 15 15 15 14 14 17 17 17 16 14 14 13 13 13 13 14 14 13 13 13 12 12 14 13 12
12 9 17 11 19 1 14 18 15 17 13 10 15 20 14 3 7 3 8 14 13 13 16 17 15 15 14 14 14 15 16 16 16 16 14 13 12 12 11 12 12 13 12 13 13 13 14 14 13
8 14 9 23 6 8 6 11 6 12 11 10 17 17 14 8 2 4 4 8 15 17 14 13 14 15 14 14 14 15 16 16 16 16 15 14 11 10 10 10 10 12 12 12 12 13 14 14 13
7 8 9 10 7 23 14 4 16 12 9 7 11 16 13 6 2 3 5 18 17 13 13 14 12 12 14 16 16 15 16 16 16 15 15 13 12 10 10 9 10 10 12 12 12 13 14 13 13
2 12 16 7 22 16 22 12 22 5 15 4 7 13 14 11 9 7 5 9 13 5 4 10 12 12 14 16 16 16 16 17 17 16 15 14 14 12 10 9 10 10 11 12 12 12 13 13 12
7 2 7 12 15 20 7 10 4 9 7 9 1 6 9 11 13 8 4 6 3 4 6 10 11 12 13 17 16 16 16 15 15 16 16 15 15 13 12 10 9 9 10 10 11 11 12 14 13
5 18 7 6 4 9 9 22 2 6 11 11 10 5 7 8 8 8 10 10 6 9 10 12 13 13 13 17 16 15 15 14 15 15 15 14 15 14 13 12 10 9 9 10 10 11 13 14 13
16 24 28 5 14 11 15 10 13 5 11 7 7 12 3 3 5 5 7 14 13 9 9 11 14 15 14 17 17 15 13 14 14 14 14 14 13 11 12 11 10 8 7 8 9 11 12 14 14
15 24 22 27 16 18 25 23 20 10 13 11 10 13 6 7 5 4 4 5 10 11 10 10 12 15 14 14 17 16 13 12 13 13 13 13 12 11 10 10 8 8 8 7 8 10 12 14 14
19 18 20 26 20 21 22 26 25 14 16 16 12 9 7 7 5 4 5 5 4 8 12 9 12 10 13 15 15 17 17 15 14 14 14 14 12 10 11 10 7 5 5 7 7 10 12 13 14
21 22 24 20 20 23 24 24 20 20 19 20 8 3 3 1 6 7 6 7 8 2 7 11 7 8 11 14 15 15 15 14 13 14 14 14 12 13 11 8 8 4 5 5 9 11 13 15 15
24 25 25 21 21 22 23 23 18 18 17 19 15 19 15 5 5 6 6 6 8 9 3 7 7 5 6 13 11 13 13 19 14 16 16 16 13 15 16 12 8 6 9 7 11 15 14 15 15
24 28 29 25 19 22 18 25 24 20 13 21 21 18 4 8 10 7 4 5 6 8 6 0 4 5 3 7 11 12 12 18 22 16 18 20 17 15 14 10 10 12 12 13 14 20 16 17 16
26 27 32 20 15 17 19 32 24 20 14 20 29 12 14 10 17 16 9 11 7 9 7 5 4 3 4 5 6 7 8 5 7 14 8 13 16 12 10 12 13 12 9 12 17 20 18 15 14
21 29 29 32 27 27 24 27 22 18 19 16 20 18 19 14 23 16 11 12 13 8 12 8 8 8 6 5 7 7 7 3 4 7 15 11 13 12 10 11 10 9 8 11 17 21 19 16 14
23 24 27 30 28 30 30 31 25 23 16 22 22 27 22 27 32 23 19 15 16 13 14 14 11 12 11 11 10 10 9 7 3 3 8 13 13 12 13 15 12 11 10 8 14 20 19 16 15
21 25 31 31 29 30 31 33 31 30 26 18 24 22 26 25 24 28 28 22 20 19 13 19 15 12 14 13 11 10 7 8 7 5 4 5 14 15 13 13 11 12 9 9 14 20 19 18 16
25 27 28 29 26 27 28 28 30 30 30 28 24 21 22 18 23 24 32 30 26 24 22 15 20 14 12 15 14 14 13 11 11 12 10 7 8 11 14 14 12 11 13 11 11 13 16 17 19
22 24 29 31 24 24 24 29 23 24 25 29 28 28 28 27 22 28 28 32 31 32 27 19 24 18 15 16 18 19 19 19 16 13 12 9 9 11 9 10 12 13 15 14 14 14 14 13 16
22 20 25 29 26 25 25 26 32 27 26 23 31 32 33 36 36 27 31 39 36 37 34 22 22 23 20 21 20 20 19 15 8 10 13 12 11 11 12 13 13 14 16 19 18 17 15 18 18
20 19 22 23 25 25 32 23 24 13 20 25 33 28 22 25 34 28 38 50 36 35 39 25 22 28 24 24 23 22 22 20 16 15 14 13 10 10 11 13 17 22 21 24 23 21 19 18 18
16 19 19 23 28 16 35 17 17 19 19 22 28 27 38 23 27 28 26 42 36 35 40 29 25 30 26 25 28 24 22 21 19 16 13 12 11 12 10 14 19 23 23 25 24 23 20 18 19
12 20 14 10 7 7 25 17 6 19 21 19 23 23 18 26 17 25 25 35 42 40 40 34 31 32 28 26 30 27 22 23 20 17 15 11 10 9 8 12 19 19 19 11 22 20 19 19 19
28 15 14 7 6 13 29 20 13 10 10 10 13 17 17 23 30 31 22 39 45 40 41 33 36 34 29 26 30 30 25 25 23 21 16 11 8 6 6 8 9 9 13 10 13 15 15 17 19
24 22 22 27 29 21 12 14 10 13 8 12 12 11 10 21 32 32 22 32 47 49 39 33 33 38 31 28 30 32 29 29 27 24 16 12 12 7 6 7 4 3 10 11 10 11 13 17 18
20 22 15 17 5 6 9 4 8 18 24 29 21 16 16 28 32 33 33 23 44 48 39 29 28 39 35 33 30 34 33 30 31 28 20 15 15 11 9 8 6 6 6 7 8 10 12 13 15
23 22 12 13 4 2 4 3 9 19 22 32 30 25 23 27 29 36 27 32 37 37 31 27 20 27 30 31 32 35 38 33 34 31 23 19 19 17 13 11 8 7 7 7 6 5 7 9 12
15 11 18 8 8 14 10 2 7 15 21 32 34 36 32 20 27 31 32 14 16 15 32 33 26 24 25 21 21 29 34 37 34 34 29 24 20 20 16 15 12 11 10 7 4 2 5 6 9
Wind_Direction
350 345 351 63 65 74 79 63 58 56 63 54 58 64 39 25 119 152 125 115 138 141 143 146 150 154 147 146 144 141 135 135 136 130 140 138 142 139 140 137 138 144 136 139 144 138 141 142 131
4 340 45 27 45 104 90 80 70 66 80 74 96 86 23 53 79 103 110 143 149 146 143 145 149 154 154 151 151 152 150 147 144 143 146 144 145 140 134 133 137 139 147 143 140 140 139 140 143
358 14 14 4 336 100 93 91 92 65 89 38 57 62 60 104 95 99 115 127 146 149 145 144 149 154 158 156 154 153 157 155 149 148 146 142 139 136 132 134 140 144 145 143 142 141 141 140 146
12 11 10 355 328 165 99 119 96 82 92 64 56 91 95 110 35 53 103 133 157 153 148 149 151 151 155 154 153 150 152 156 154 151 149 144 141 141 140 140 146 145 150 146 145 145 142 139 144
339 20 36 3 26 12 94 133 113 100 114 44 42 88 104 172 325 2 56 117 160 158 152 152 153 152 152 152 151 151 150 151 155 154 152 147 148 148 152 147 152 150 151 150 149 146 142 141 143
11 10 68 353 317 326 327 199 121 95 98 71 36 59 65 78 158 63 51 95 116 142 152 161 170 165 157 154 148 145 145 147 148 150 150 152 152 154 151 153 152 155 157 154 154 151 147 146 143
333 91 114 61 328 356 6 73 127 73 134 187 82 50 73 76 81 114 158 62 110 123 172 179 180 178 171 163 158 153 149 143 144 143 143 149 149 151 145 151 147 157 160 159 161 156 152 146 145
297 298 73 230 331 330 40 341 250 153 115 74 196 22 63 71 68 96 112 143 166 199 226 202 192 189 184 177 170 164 158 153 146 141 143 142 142 145 144 146 143 151 157 163 163 157 157 148 151
331 273 204 151 40 42 82 324 170 191 93 171 188 332 15 78 61 80 61 70 156 208 205 211 195 196 184 181 175 169 163 161 157 154 151 148 144 143 142 139 139 149 157 163 164 160 161 157 158
274 272 292 227 270 315 329 18 340 162 174 187 257 312 258 175 101 49 48 47 75 120 174 209 198 195 188 181 178 167 161 164 166 167 162 159 156 149 147 138 138 141 144 163 172 168 166 164 165
282 279 294 283 272 304 326 326 349 306 203 308 234 359 207 212 157 161 166 55 50 78 119 193 187 192 189 187 189 190 185 180 180 181 182 173 162 166 162 154 153 162 158 159 175 177 172 176 177
288 290 294 302 313 308 312 314 317 310 280 272 288 257 125 171 176 172 184 191 54 48 84 134 193 170 185 187 195 195 195 199 193 193 191 187 183 181 176 177 161 167 188 188 184 185 183 189 190
288 285 291 287 296 308 304 293 284 287 291 288 222 243 264 5 219 189 190 197 202 2 51 88 118 180 195 186 201 202 199 198 204 209 204 203 203 199 206 202 195 210 231 214 207 203 197 195 204
289 288 293 292 294 287 284 286 288 279 274 285 227 271 224 247 285 230 220 184 196 194 302 87 100 95 109 186 199 203 202 204 201 219 214 212 208 216 220 222 225 238 251 237 219 216 208 205 206
280 291 285 278 282 288 284 287 281 276 281 270 234 209 262 252 281 284 321 236 196 190 222 110 115 127 107 126 177 204 215 217 195 212 224 223 211 219 236 246 251 253 243 258 245 211 208 214 211
285 286 295 309 296 294 290 285 292 287 259 262 227 212 232 247 276 280 307 321 251 220 210 218 192 171 168 163 161 167 208 195 199 194 210 198 218 220 234 248 255 263 288 274 228 211 207 204 211
280 286 288 296 304 303 299 299 291 286 262 256 206 197 231 221 252 253 280 305 307 248 233 222 218 199 197 203 190 189 189 203 196 191 214 205 201 202 218 237 238 267 290 258 221 205 208 208 216
286 287 295 301 309 308 305 302 292 290 320 247 257 240 232 261 233 241 246 266 286 294 234 230 212 219 207 207 209 204 209 202 192 172 171 201 217 219 225 239 247 251 252 243 219 209 209 219 228
280 282 287 297 299 297 295 295 297 295 281 293 257 256 247 218 241 241 240 248 258 276 271 237 230 211 222 218 219 221 220 217 219 218 228 201 214 229 226 234 244 251 263 219 202 218 207 216 223
277 280 287 296 301 302 297 295 290 282 277 276 277 266 250 244 241 249 236 240 246 265 274 263 232 223 221 223 216 216 216 222 226 232 233 221 230 226 227 235 242 235 239 239 220 220 218 225 233
280 296 300 303 300 295 304 298 301 296 299 280 271 272 265 256 261 260 243 241 245 250 260 280 234 232 226 224 217 216 220 218 231 242 251 242 234 240 244 236 243 238 241 244 240 232 219 217 231
289 301 304 308 315 313 298 293 293 293 284 276 271 270 256 249 252 250 262 248 242 248 250 263 236 229 227 227 222 226 236 237 238 242 246 253 254 244 247 253 248 243 233 237 240 237 233 229 230
293 303 304 300 294 293 286 277 290 291 292 289 290 279 256 257 250 255 266 252 247 247 243 251 232 225 230 229 227 226 232 232 227 229 245 250 252 242 239 256 259 253 243 231 227 233 239 242 245
302 300 291 291 286 282 281 276 269 296 302 300 298 292 264 262 233 266 287 252 239 238 236 244 235 227 229 231 231 224 229 233 233 229 240 250 245 250 272 273 266 259 268 250 231 229 228 238 244
311 309 306 309 311 274 319 318 276 317 320 321 310 300 272 247 234 289 278 242 231 228 227 236 227 217 227 229 233 224 223 230 229 232 238 251 245 257 286 313 295 262 254 236 198 217 220 230 244
309 285 279 277 283 287 302 294 20 339 310 275 307 297 275 240 245 300 271 217 231 228 225 234 217 215 223 229 230 229 220 222 226 227 233 242 250 261 290 314 315 226 202 211 209 216 223 236 241
303 299 294 286 295 290 294 336 310 340 306 295 320 328 314 206 284 283 248 224 210 214 227 233 224 216 223 223 224 229 220 216 222 223 225 228 245 248 254 264 274 202 187 196 216 228 232 237 243
310 329 286 281 339 310 335 43 356 337 336 330 302 288 291 239 290 282 280 254 211 204 210 242 229 222 223 223 224 227 226 215 218 224 221 227 240 233 228 235 224 230 223 229 234 237 242 247 243
323 330 328 323 297 226 319 357 314 313 318 327 321 318 305 291 301 291 294 278 214 201 205 216 234 225 228 232 235 231 228 218 214 223 225 226 236 238 222 232 230 225 232 227 234 247 260 249 244
303 355 340 331 298 300 288 252 275 311 330 321 319 317 303 309 307 297 302 266 215 239 248 220 241 246 248 250 254 247 233 226 222 220 227 227 232 236 221 223 225 227 231 238 240 272 275 249 241
Height
3163 3161 3160 3160 3162 3159 3157 3162 3160 3156 3157 3156 3154 3152 3150 3148 3149 3154 3153 3156 3158 3160 3161 3163 3166 3167 3168 3169 3171 3172 3173 3174 3175 3178 3181 3182 3184 3186 3187 3187 3188 3190 3192 3193 3195 3196 3198 3199 3201
3165 3165 3160 3160 3161 3158 3159 3160 3161 3161 3159 3159 3157 3152 3151 3149 3149 3150 3153 3157 3160 3162 3162 3163 3166 3167 3168 3170 3171 3172 3174 3175 3177 3179 3181 3183 3185 3186 3187 3188 3190 3191 3193 3194 3195 3197 3199 3201 3202
3168 3164 3161 3158 3159 3156 3158 3161 3161 3163 3162 3160 3157 3154 3151 3151 3150 3152 3155 3157 3160 3162 3163 3164 3166 3168 3169 3170 3171 3173 3174 3175 3177 3180 3181 3183 3185 3186 3188 3189 3191 3193 3194 3195 3196 3197 3199 3201 3203
3168 3168 3165 3163 3161 3159 3159 3160 3161 3162 3164 3162 3160 3155 3155 3153 3153 3155 3158 3160 3161 3163 3164 3166 3167 3168 3169 3170 3171 3172 3174 3176 3177 3180 3182 3183 3185 3186 3189 3190 3192 3192 3195 3195 3197 3199 3200 3201 3204
3170 3169 3169 3169 3165 3161 3163 3164 3161 3164 3163 3164 3162 3158 3158 3158 3155 3155 3157 3160 3162 3164 3165 3166 3168 3169 3170 3171 3172 3173 3175 3176 3178 3179 3182 3184 3186 3188 3190 3191 3193 3193 3195 3197 3198 3200 3201 3202 3204
3171 3174 3172 3176 3165 3163 3160 3163 3161 3162 3164 3161 3163 3159 3158 3159 3158 3157 3158 3162 3163 3166 3166 3167 3168 3169 3170 3172 3173 3174 3175 3177 3179 3180 3182 3184 3186 3189 3190 3192 3193 3194 3196 3197 3199 3201 3202 3204 3206
3169 3176 3178 3177 3168 3169 3164 3164 3165 3158 3161 3160 3160 3161 3160 3160 3160 3159 3157 3160 3163 3164 3166 3168 3169 3169 3170 3172 3174 3176 3177 3178 3181 3181 3183 3185 3187 3189 3190 3192 3193 3195 3196 3198 3201 3202 3204 3205 3207
3173 3175 3180 3184 3174 3166 3166 3163 3165 3158 3160 3159 3161 3161 3160 3159 3159 3161 3160 3160 3160 3163 3164 3166 3168 3170 3171 3173 3174 3176 3177 3179 3180 3182 3184 3186 3186 3188 3191 3193 3193 3195 3197 3199 3201 3203 3205 3206 3207
3175 3174 3175 3176 3179 3172 3159 3163 3165 3163 3160 3160 3162 3161 3163 3159 3159 3160 3161 3161 3161 3162 3163 3164 3166 3169 3170 3172 3174 3177 3178 3180 3182 3183 3185 3186 3188 3189 3191 3192 3194 3196 3197 3199 3201 3203 3206 3206 3207
3175 3173 3176 3178 3174 3169 3167 3159 3163 3165 3161 3162 3159 3160 3160 3160 3159 3159 3160 3161 3162 3162 3163 3163 3164 3167 3170 3172 3175 3177 3179 3180 3182 3184 3186 3187 3189 3191 3192 3193 3195 3196 3197 3199 3201 3203 3205 3206 3208
3172 3171 3171 3164 3166 3167 3163 3162 3162 3165 3158 3160 3157 3157 3159 3159 3159 3160 3160 3160 3160 3162 3163 3162 3163 3165 3169 3172 3175 3177 3179 3180 3181 3183 3185 3187 3189 3190 3192 3194 3195 3197 3197 3199 3201 3203 3204 3206 3207
3170 3169 3170 3169 3164 3163 3162 3160 3158 3164 3161 3157 3156 3155 3155 3156 3159 3159 3160 3160 3161 3161 3163 3164 3163 3165 3167 3169 3172 3174 3177 3179 3181 3182 3183 3186 3188 3190 3192 3194 3195 3197 3197 3198 3201 3202 3203 3205 3206
3165 3165 3164 3164 3165 3161 3161 3160 3158 3157 3157 3157 3155 3156 3155 3154 3156 3157 3159 3160 3160 3160 3161 3163 3164 3164 3166 3168 3170 3173 3178 3182 3184 3183 3183 3184 3185 3188 3191 3193 3194 3195 3197 3198 3199 3200 3201 3203 3205
3160 3159 3159 3159 3160 3160 3159 3157 3157 3156 3154 3151 3151 3152 3153 3154 3153 3154 3158 3159 3160 3160 3160 3163 3163 3165 3164 3166 3168 3172 3176 3178 3181 3182 3182 3181 3183 3186 3189 3191 3193 3194 3195 3195 3196 3198 3198 3200 3202
3155 3152 3152 3153 3153 3151 3151 3150 3150 3151 3151 3147 3147 3148 3149 3151 3150 3152 3155 3157 3158 3159 3159 3161 3163 3163 3164 3166 3168 3171 3172 3171 3168 3175 3179 3178 3180 3182 3185 3187 3190 3191 3191 3191 3192 3194 3196 3197 3198
3150 3150 3146 3148 3148 3146 3149 3145 3144 3147 3147 3145 3141 3142 3145 3150 3150 3152 3152 3153 3156 3157 3157 3159 3161 3163 3164 3164 3166 3168 3167 3169 3169 3175 3175 3174 3178 3179 3181 3184 3186 3187 3187 3187 3188 3190 3193 3196 3197
3149 3145 3145 3142 3145 3145 3146 3142 3141 3142 3143 3145 3139 3137 3136 3141 3147 3149 3150 3151 3152 3155 3156 3156 3158 3160 3162 3164 3164 3167 3168 3167 3169 3172 3175 3174 3175 3177 3179 3180 3183 3183 3184 3183 3184 3187 3190 3193 3195
3144 3144 3142 3141 3140 3137 3136 3134 3135 3135 3137 3142 3142 3144 3139 3139 3138 3140 3144 3148 3149 3151 3153 3154 3155 3158 3159 3162 3163 3164 3165 3166 3168 3169 3172 3173 3173 3175 3176 3177 3179 3181 3182 3182 3182 3185 3187 3191 3194
3141 3141 3139 3139 3138 3135 3132 3130 3131 3131 3131 3132 3137 3135 3133 3135 3135 3133 3137 3142 3146 3147 3149 3151 3152 3154 3155 3157 3160 3162 3163 3164 3164 3165 3167 3171 3173 3172 3174 3175 3177 3178 3178 3179 3180 3183 3183 3186 3190
3139 3138 3136 3135 3135 3132 3129 3127 3128 3125 3124 3126 3128 3130 3133 3136 3136 3131 3133 3135 3140 3143 3145 3146 3149 3151 3153 3154 3157 3159 3161 3163 3164 3165 3166 3168 3170 3171 3172 3173 3173 3175 3176 3178 3178 3179 3180 3183 3185
3138 3136 3134 3132 3130 3128 3125 3122 3124 3122 3120 3119 3121 3123 3125 3128 3132 3129 3128 3130 3136 3139 3141 3143 3144 3147 3149 3151 3152 3155 3157 3160 3161 3163 3164 3166 3167 3168 3169 3171 3170 3171 3172 3173 3175 3177 3177 3179 3181
3135 3135 3130 3127 3128 3125 3124 3117 3118 3117 3116 3115 3114 3113 3116 3119 3123 3128 3123 3123 3127 3134 3136 3138 3140 3142 3144 3146 3147 3150 3153 3157 3160 3161 3162 3163 3164 3166 3166 3165 3166 3167 3168 3169 3170 3172 3174 3176 3177
3132 3132 3129 3126 3123 3123 3117 3117 3112 3113 3111 3112 3111 3113 3113 3114 3116 3119 3121 3113 3119 3125 3128 3131 3134 3137 3137 3141 3143 3145 3148 3152 3156 3158 3157 3159 3160 3161 3163 3162 3161 3160 3160 3161 3162 3165 3168 3170 3172
3130 3128 3126 3123 3119 3118 3111 3113 3109 3108 3108 3107 3104 3103 3106 3105 3103 3106 3104 3104 3109 3117 3121 3125 3127 3130 3132 3134 3137 3140 3142 3146 3150 3152 3153 3154 3156 3156 3157 3157 3155 3155 3154 3155 3156 3160 3161 3164 3166
3128 3125 3122 3122 3118 3115 3109 3108 3105 3104 3101 3101 3101 3099 3094 3094 3095 3100 3096 3094 3101 3106 3113 3117 3119 3122 3125 3128 3129 3135 3138 3140 3144 3146 3148 3150 3151 3152 3151 3151 3147 3147 3147 3144 3148 3154 3157 3158 3160
3125 3124 3123 3122 3119 3110 3108 3104 3107 3100 3097 3096 3096 3094 3093 3097 3101 3097 3087 3087 3095 3100 3105 3110 3112 3114 3116 3120 3122 3126 3132 3135 3138 3141 3144 3146 3147 3147 3147 3147 3146 3144 3145 3147 3148 3151 3152 3153 3155
3122 3121 3120 3114 3110 3104 3103 3104 3099 3098 3096 3095 3093 3089 3087 3093 3099 3093 3086 3087 3090 3095 3102 3106 3109 3110 3111 3113 3115 3118 3124 3128 3132 3136 3139 3141 3143 3144 3144 3145 3144 3143 3144 3144 3145 3145 3146 3149 3150
3121 3118 3113 3112 3111 3108 3100 3101 3100 3098 3094 3095 3093 3091 3092 3091 3092 3084 3079 3078 3083 3083 3093 3103 3104 3106 3107 3108 3110 3114 3117 3122 3126 3130 3134 3138 3139 3140 3142 3143 3143 3144 3142 3142 3142 3143 3143 3143 3145
3116 3113 3112 3112 3110 3109 3106 3102 3098 3096 3094 3092 3091 3092 3091 3090 3086 3077 3078 3080 3077 3082 3091 3091 3102 3102 3103 3105 3107 3110 3112 3116 3120 3125 3129 3134 3136 3137 3140 3141 3141 3142 3141 3141 3141 3140 3140 3140 3140
3118 3115 3113 3112 3110 3107 3104 3102 3096 3096 3092 3088 3086 3082 3086 3082 3080 3081 3074 3069 3074 3058 3078 3081 3094 3096 3099 3100 3102 3105 3109 3113 3116 3119 3124 3128 3132 3133 3136 3137 3139 3140 3141 3140 3138 3137 3138 3138 3137